This is the latest recevied weather packets stored in our database for station/object K5KVN. If no packets are shown the sender has not sent any weather packets the latest 10 day(s).
| Time | Temp. | Humidity | Pressure | Rain* | Wind** | Luminosity | Snow |
|---|---|---|---|---|---|---|---|
| 1788066675 | 24.44° C | 63% | 1017.9 hPa | 0 mm | - | - | - |
| 1788066075 | 25° C | 61% | 1018 hPa | 0 mm | - | - | - |
| 1788065474 | 25.56° C | 60% | 1018.1 hPa | 0 mm | - | - | - |
| 1788064873 | 25.56° C | 60% | 1018 hPa | 0 mm | - | - | - |
| 1788064274 | 26.11° C | 59% | 1018 hPa | 0 mm | - | - | - |
| 1788063674 | 26.11° C | 59% | 1017.9 hPa | 0 mm | - | - | - |
| 1788063071 | 26.67° C | 58% | 1017.8 hPa | 0 mm | - | - | - |
| 1788062471 | 26.67° C | 59% | 1017.8 hPa | 0 mm | - | - | - |
| 1788061872 | 26.67° C | 58% | 1017.8 hPa | 0 mm | - | - | - |
| 1788061271 | 26.67° C | 58% | 1017.8 hPa | 0 mm | - | - | - |
| 1788060731 | 26.67° C | 58% | 1017.8 hPa | 0 mm | - | - | - |
| 1788060069 | 27.22° C | 57% | 1017.7 hPa | 0 mm | - | - | - |
| 1788059469 | 27.78° C | 56% | 1017.5 hPa | 0 mm | - | - | - |
| 1788058867 | 28.33° C | 54% | 1017.4 hPa | 0 mm | - | - | - |
| 1788058268 | 28.33° C | 53% | 1017.4 hPa | 0 mm | - | - | - |
| 1788057727 | 28.89° C | 52% | 1017.2 hPa | 0 mm | - | - | - |
| 1788057127 | 28.89° C | 52% | 1017.1 hPa | 0 mm | - | - | - |
| 1788056466 | 28.89° C | 52% | 1017 hPa | 0 mm | - | - | - |
| 1788055865 | 28.33° C | 53% | 1016.9 hPa | 0 mm | - | - | - |
| 1788055267 | 28.33° C | 54% | 1016.8 hPa | 0 mm | - | - | - |
| 1788054663 | 28.33° C | 54% | 1016.6 hPa | 0 mm | - | - | - |
| 1788054065 | 28.33° C | 53% | 1016.5 hPa | 0 mm | - | - | - |
| 1788053464 | 28.89° C | 51% | 1016.5 hPa | 0 mm | - | - | - |
| 1788052865 | 29.44° C | 51% | 1016.4 hPa | 0 mm | - | - | - |
| 1788052262 | 30° C | 48% | 1016.3 hPa | 0 mm | - | - | - |
* Rain latest hour (hover to see other rain measurements)
** Current wind speed in m/s (hover to see current wind gust speed)